Buffalo, NY

6:24 AM EST on November 12, 2019 (GMT -0500)
Buffalo Niagara International

Weather History for KBUF - September, 2019

Change the Weather History Date:

Sunday, September 29, 2019

  Actual Average Record
Temperature  
Mean Temperature 58 °F 57 °F  
Max Temperature 62 °F 66 °F 88 °F (1954)
Min Temperature 53 °F 48 °F 33 °F (2000)
Degree Days  
Heating Degree Days 7 9  
Month to date heating degree days 36 127  
Since 1 July heating degree days 39 154  
Cooling Degree Days 0 1  
Month to date cooling degree days 52 54  
Year to date cooling degree days 597 541  
Growing Degree Days 8 (Base 50)    
Moisture  
Dew Point 50 °F    
Average Humidity 74    
Maximum Humidity 93    
Minimum Humidity 55    
Precipitation  
Precipitation T in 0.14 in 1.37 in (1997)
Month to date precipitation 6.22 3.76  
Year to date precipitation 34.59 28.92  
Snow  
Snow 0.00 in 0.00 in 0.00 in ()
Month to date snowfall 0.0 0.0  
Since 1 July snowfall 0.0 0.0  
Since 1 September snowfall 0.0 0.0  
Snow Depth 0.00 in    
Sea Level Pressure  
Sea Level Pressure 30.33 in    
Wind  
Wind Speed 11 mph (NE)    
Max Wind Speed 18 mph    
Max Gust Speed 22 mph    
Visibility 10 miles    
Events      
T = Trace of Precipitation, MM = Missing Value Source: NWS Daily Summary

Daily Weather History Graph

Daily Weather History Graph

Search for Another Location

Airport or City:

Astronomy

Sep. 29, 2019 Rise Set
Actual Time 7:09 AM EDT 7:00 PM EDT
Civil Twilight 6:41 AM EDT 7:28 PM EDT
Nautical Twilight 6:08 AM EDT 8:01 PM EDT
Astronomical Twilight 5:35 AM EDT 8:34 PM EDT
Moon 7:58 AM EDT (9/29) 7:58 PM EDT (9/29)
Length of Visible Light 12h 46m
Length of Day
11h 50m
New Moon, 1% of the Moon is Illuminated
Sep 29
New Moon
Oct 5
First Quarter
Oct 13
Full
Oct 21
Last Quarter
Oct 27
New

Hourly Weather History & Observations

Time (EDT) Temp. Dew Point Humidity Pressure Visibility Wind Dir Wind Speed Gust Speed Precip Events Conditions
12:54 AM 59.0 °F 57.0 °F 93% 30.25 in 10.0 mi NNW 6.9 mph - N/A   Mostly Cloudy
1:54 AM 57.0 °F 55.9 °F 96% 30.27 in 10.0 mi North 6.9 mph - N/A   Mostly Cloudy
2:26 AM 57.0 °F 55.9 °F 96% 30.27 in 10.0 mi North 5.8 mph - N/A   Overcast
2:54 AM 57.0 °F 55.0 °F 93% 30.28 in 10.0 mi NNW 4.6 mph - N/A   Overcast
3:01 AM 57.0 °F 55.0 °F 93% 30.28 in 10.0 mi NNW 6.9 mph - N/A   Overcast
3:12 AM 55.9 °F 55.0 °F 97% 30.28 in 10.0 mi North 6.9 mph - N/A   Overcast
3:54 AM 57.0 °F 54.0 °F 89% 30.28 in 10.0 mi North 8.1 mph - N/A   Overcast
4:30 AM 55.9 °F 54.0 °F 93% 30.29 in 10.0 mi NNE 10.4 mph - N/A   Overcast
4:54 AM 55.9 °F 54.0 °F 93% 30.30 in 10.0 mi NNE 9.2 mph - N/A   Overcast
5:13 AM 55.9 °F 54.0 °F 93% 30.31 in 10.0 mi NE 12.7 mph - N/A   Overcast
5:34 AM 55.0 °F 52.0 °F 89% 30.31 in 10.0 mi NNE 13.8 mph - N/A   Overcast
5:54 AM 54.0 °F 50.0 °F 86% 30.33 in 10.0 mi NNE 10.4 mph - N/A   Overcast
6:18 AM 54.0 °F 50.0 °F 86% 30.32 in 10.0 mi NE 12.7 mph - N/A   Overcast
6:54 AM 53.1 °F 50.0 °F 89% 30.34 in 10.0 mi NE 10.4 mph - N/A   Mostly Cloudy
7:54 AM 53.1 °F 48.9 °F 86% 30.37 in 10.0 mi NE 12.7 mph - N/A   Mostly Cloudy
9:54 AM 54.0 °F 46.9 °F 77% 30.41 in 10.0 mi NE 12.7 mph - N/A   Mostly Cloudy
10:54 AM 55.9 °F 46.9 °F 72% 30.41 in 10.0 mi NE 15.0 mph - N/A   Mostly Cloudy
11:54 AM 57.9 °F 46.9 °F 67% 30.40 in 10.0 mi East 11.5 mph - N/A   Mostly Cloudy
12:54 PM 60.1 °F 48.0 °F 64% 30.39 in 10.0 mi ENE 12.7 mph - N/A   Mostly Cloudy
1:54 PM 62.1 °F 48.0 °F 60% 30.37 in 10.0 mi ENE 12.7 mph - N/A   Mostly Cloudy
2:54 PM 61.0 °F 45.0 °F 56% 30.36 in 10.0 mi East 9.2 mph - N/A   Mostly Cloudy
3:54 PM 61.0 °F 46.9 °F 60% 30.36 in 10.0 mi NNE 11.5 mph - N/A   Mostly Cloudy
4:54 PM 57.9 °F 46.0 °F 65% 30.36 in 10.0 mi NE 11.5 mph - N/A   Mostly Cloudy
5:54 PM 55.9 °F 46.0 °F 69% 30.35 in 10.0 mi NE 15.0 mph - N/A   Mostly Cloudy
6:54 PM 54.0 °F 46.0 °F 75% 30.32 in 10.0 mi ENE 13.8 mph - N/A   Mostly Cloudy
7:54 PM 53.1 °F 44.1 °F 71% 30.33 in 10.0 mi ENE 10.4 mph - N/A   Mostly Cloudy
8:54 PM 53.1 °F 45.0 °F 74% 30.33 in 10.0 mi ENE 10.4 mph - N/A   Mostly Cloudy
10:54 PM 53.1 °F 45.0 °F 74% 30.32 in 10.0 mi East 9.2 mph - N/A   Mostly Cloudy
11:54 PM 53.1 °F 45.0 °F 74% 30.32 in 10.0 mi East 10.4 mph - N/A   Mostly Cloudy